Terug naar catalogus

STARLINK-3637

ActiefCommunicatieVLEO
NORAD 51799·PAYLOAD·🇺🇸 United States

Gelanceerd Feb 25, 2022 vanaf Vandenberg Space Force Base

Loading…

Volgende Passages (komende 24 uur)

TLE

VersSource: CelesTrak SupGP

Epoch: Sep 15, 2026, 02:53 UTC

1 51799C 22017AH  26258.12062500 -.00015378  00000+0 -45445-3 0  2580
2 51799  53.1579 203.2101 0001334  83.2168 274.0134 15.34391560    10

Volg STARLINK-3637 in realtime met AllMySat

Download on the App Store